Time,TemperatureF,DewpointF,PressureIn,WindDirection,WindDirectionDegrees,WindSpeedMPH,WindSpeedGustMPH,Humidity,HourlyPrecipIn,Conditions,Clouds,dailyrainin,SoftwareType,DateUTC
2013-02-04 00:00:00,19.9,18.0,30.00,NW,308,36.0,-999.0,90,-99.99,,,0.00,weatherlink.com 1.10,2013-02-04 05:00:00,
2013-02-04 00:15:00,19.6,17.0,30.02,NW,314,29.0,-999.0,91,-99.99,,,0.00,weatherlink.com 1.10,2013-02-04 05:15:00,
2013-02-04 00:30:00,19.3,17.0,30.01,NNW,341,14.0,-999.0,91,-99.99,,,0.00,weatherlink.com 1.10,2013-02-04 05:30:00,
2013-02-04 00:45:00,19.1,16.0,30.01,WNW,302,24.0,-999.0,89,-99.99,,,0.00,weatherlink.com 1.10,2013-02-04 05:45:00,
2013-02-04 01:00:00,19.0,16.0,30.02,NW,304,18.0,-999.0,88,-99.99,,,0.00,weatherlink.com 1.10,2013-02-04 06:00:00,
2013-02-04 01:15:00,18.8,16.0,30.02,North,355,23.0,-999.0,87,-99.99,,,0.00,weatherlink.com 1.10,2013-02-04 06:15:00,
2013-02-04 01:30:00,18.6,15.0,30.03,NNW,347,17.0,-999.0,87,-99.99,,,0.00,weatherlink.com 1.10,2013-02-04 06:30:00,
2013-02-04 01:45:00,18.6,15.0,30.04,WNW,287,12.0,-999.0,87,-99.99,,,0.00,weatherlink.com 1.10,2013-02-04 06:45:00,
2013-02-04 02:00:00,18.5,15.0,30.05,NNW,341,20.0,-999.0,87,-99.99,,,0.00,weatherlink.com 1.10,2013-02-04 07:00:00,
2013-02-04 02:15:00,18.2,15.0,30.05,NW,324,12.0,-999.0,88,-99.99,,,0.00,weatherlink.com 1.10,2013-02-04 07:15:00,
2013-02-04 02:30:00,18.4,15.0,30.05,NNE,18,3.0,-999.0,87,-99.99,,,0.00,weatherlink.com 1.10,2013-02-04 07:30:00,
2013-02-04 02:45:00,18.2,15.0,30.07,NW,324,25.0,-999.0,88,-99.99,,,0.00,weatherlink.com 1.10,2013-02-04 07:45:00,
2013-02-04 03:00:00,18.2,15.0,30.07,North,5,9.0,-999.0,88,-99.99,,,0.00,weatherlink.com 1.10,2013-02-04 08:00:00,
2013-02-04 03:15:00,18.6,15.0,30.07,North,355,7.0,-999.0,86,-99.99,,,0.00,weatherlink.com 1.10,2013-02-04 08:15:00,
2013-02-04 03:30:00,18.8,15.0,30.07,NNW,338,7.0,-999.0,85,-99.99,,,0.00,weatherlink.com 1.10,2013-02-04 08:30:00,
2013-02-04 03:45:00,19.6,15.0,30.07,North,360,7.0,-999.0,81,-99.99,,,0.00,weatherlink.com 1.10,2013-02-04 08:45:00,
2013-02-04 04:00:00,20.4,15.0,30.06,NNW,328,2.0,-999.0,78,-99.99,,,0.00,weatherlink.com 1.10,2013-02-04 09:00:00,
2013-02-04 04:15:00,20.6,15.0,30.06,North,360,11.0,-999.0,78,-99.99,,,0.00,weatherlink.com 1.10,2013-02-04 09:15:00,
2013-02-04 04:30:00,20.7,15.0,30.08,NW,317,2.0,-999.0,77,-99.99,,,0.00,weatherlink.com 1.10,2013-02-04 09:30:00,
2013-02-04 04:45:00,20.5,14.0,30.09,WNW,288,13.0,-999.0,77,-99.99,,,0.00,weatherlink.com 1.10,2013-02-04 09:45:00,
2013-02-04 05:01:00,20.8,15.0,30.09,NNE,12,6.0,-999.0,77,-99.99,,,0.00,weatherlink.com 1.10,2013-02-04 10:01:00,
2013-02-04 05:15:00,21.2,14.0,30.11,NNW,329,4.0,-999.0,75,-99.99,,,0.00,weatherlink.com 1.10,2013-02-04 10:15:00,
2013-02-04 05:30:00,21.7,14.0,30.12,NW,324,4.0,-999.0,72,-99.99,,,0.00,weatherlink.com 1.10,2013-02-04 10:30:00,
2013-02-04 05:45:00,22.1,13.0,30.11,NW,325,10.0,-999.0,69,-99.99,,,0.00,weatherlink.com 1.10,2013-02-04 10:45:00,
2013-02-04 06:01:00,22.8,13.0,30.11,NNW,333,8.0,-999.0,66,-99.99,,,0.00,weatherlink.com 1.10,2013-02-04 11:01:00,
2013-02-04 06:15:00,23.6,13.0,30.12,NNW,343,5.0,-999.0,63,-99.99,,,0.00,weatherlink.com 1.10,2013-02-04 11:15:00,
2013-02-04 06:30:00,23.9,12.0,30.13,North,351,7.0,-999.0,61,-99.99,,,0.00,weatherlink.com 1.10,2013-02-04 11:30:00,
2013-02-04 06:45:00,24.0,13.0,30.14,NNW,334,0.0,-999.0,62,-99.99,,,0.00,weatherlink.com 1.10,2013-02-04 11:45:00,
2013-02-04 07:01:00,24.5,12.0,30.14,North,360,3.0,-999.0,60,-99.99,,,0.00,weatherlink.com 1.10,2013-02-04 12:01:00,
2013-02-04 07:15:00,24.3,11.0,30.15,North,360,6.0,-999.0,56,-99.99,,,0.00,weatherlink.com 1.10,2013-02-04 12:15:00,
2013-02-04 07:30:00,24.2,10.0,30.15,West,281,13.0,-999.0,56,-99.99,,,0.00,weatherlink.com 1.10,2013-02-04 12:30:00,
2013-02-04 07:45:00,23.8,10.0,30.14,NNW,343,7.0,-999.0,57,-99.99,,,0.00,weatherlink.com 1.10,2013-02-04 12:45:00,
2013-02-04 08:00:00,24.4,11.0,30.16,NW,311,6.0,-999.0,56,-99.99,,,0.00,weatherlink.com 1.10,2013-02-04 13:00:00,
2013-02-04 08:16:00,25.3,13.0,30.17,WNW,301,11.0,-999.0,60,-99.99,,,0.00,weatherlink.com 1.10,2013-02-04 13:16:00,
2013-02-04 08:30:00,24.8,15.0,30.18,WNW,284,11.0,-999.0,66,-99.99,,,0.00,weatherlink.com 1.10,2013-02-04 13:30:00,
2013-02-04 08:45:00,26.2,15.0,30.19,WNW,290,7.0,-999.0,63,-99.99,,,0.00,weatherlink.com 1.10,2013-02-04 13:45:00,
2013-02-04 09:00:00,27.2,16.0,30.20,West,263,12.0,-999.0,62,-99.99,,,0.00,weatherlink.com 1.10,2013-02-04 14:00:00,
2013-02-04 09:15:00,27.8,16.0,30.19,WNW,294,6.0,-999.0,61,-99.99,,,0.00,weatherlink.com 1.10,2013-02-04 14:15:00,
2013-02-04 09:31:00,28.5,17.0,30.20,WSW,244,8.0,-999.0,62,-99.99,,,0.00,weatherlink.com 1.10,2013-02-04 14:31:00,
2013-02-04 09:46:00,29.3,18.0,30.20,NNW,327,7.0,-999.0,62,-99.99,,,0.00,weatherlink.com 1.10,2013-02-04 14:46:00,
2013-02-04 10:01:00,31.0,19.0,30.21,WNW,297,9.0,-999.0,61,-99.99,,,0.00,weatherlink.com 1.10,2013-02-04 15:01:00,
2013-02-04 10:16:00,30.2,19.0,30.20,West,276,3.0,-999.0,63,-99.99,,,0.00,weatherlink.com 1.10,2013-02-04 15:16:00,
2013-02-04 10:31:00,30.8,19.0,30.21,West,281,4.0,-999.0,63,-99.99,,,0.00,weatherlink.com 1.10,2013-02-04 15:31:00,
2013-02-04 10:46:00,31.3,19.0,30.21,SW,235,5.0,-999.0,61,-99.99,,,0.00,weatherlink.com 1.10,2013-02-04 15:46:00,
2013-02-04 11:01:00,31.5,19.0,30.20,WSW,256,6.0,-999.0,60,-99.99,,,0.00,weatherlink.com 1.10,2013-02-04 16:01:00,
2013-02-04 11:16:00,31.7,20.0,30.20,SW,231,6.0,-999.0,61,-99.99,,,0.00,weatherlink.com 1.10,2013-02-04 16:16:00,
2013-02-04 11:31:00,32.2,20.0,30.19,WSW,239,10.0,-999.0,60,-99.99,,,0.00,weatherlink.com 1.10,2013-02-04 16:31:00,
2013-02-04 11:46:00,32.9,20.0,30.19,WSW,255,9.0,-999.0,60,-99.99,,,0.00,weatherlink.com 1.10,2013-02-04 16:46:00,
2013-02-04 12:01:00,33.2,20.0,30.20,SW,222,16.0,-999.0,59,-99.99,,,0.00,weatherlink.com 1.10,2013-02-04 17:01:00,
2013-02-04 12:16:00,33.2,20.0,30.19,SW,236,11.0,-999.0,58,-99.99,,,0.00,weatherlink.com 1.10,2013-02-04 17:16:00,
2013-02-04 12:31:00,34.5,19.0,30.18,SW,219,9.0,-999.0,54,-99.99,,,0.00,weatherlink.com 1.10,2013-02-04 17:31:00,
2013-02-04 12:46:00,35.8,20.0,30.17,SW,231,12.0,-999.0,52,-99.99,,,0.00,weatherlink.com 1.10,2013-02-04 17:46:00,
2013-02-04 13:01:00,34.8,20.0,30.16,WSW,239,9.0,-999.0,55,-99.99,,,0.00,weatherlink.com 1.10,2013-02-04 18:01:00,
2013-02-04 13:16:00,34.6,20.0,30.16,WSW,240,7.0,-999.0,55,-99.99,,,0.00,weatherlink.com 1.10,2013-02-04 18:16:00,
2013-02-04 13:31:00,35.3,20.0,30.15,WSW,238,7.0,-999.0,55,-99.99,,,0.00,weatherlink.com 1.10,2013-02-04 18:31:00,
2013-02-04 13:46:00,36.4,21.0,30.14,WSW,254,7.0,-999.0,54,-99.99,,,0.00,weatherlink.com 1.10,2013-02-04 18:46:00,
2013-02-04 14:01:00,36.9,21.0,30.14,SW,222,7.0,-999.0,53,-99.99,,,0.00,weatherlink.com 1.10,2013-02-04 19:01:00,
2013-02-04 14:16:00,37.0,21.0,30.14,SW,221,10.0,-999.0,53,-99.99,,,0.00,weatherlink.com 1.10,2013-02-04 19:16:00,
2013-02-04 14:31:00,37.2,21.0,30.13,West,273,5.0,-999.0,53,-99.99,,,0.00,weatherlink.com 1.10,2013-02-04 19:31:00,
2013-02-04 14:46:00,37.3,21.0,30.13,SSW,208,9.0,-999.0,53,-99.99,,,0.00,weatherlink.com 1.10,2013-02-04 19:46:00,
2013-02-04 15:01:00,37.9,22.0,30.13,WSW,257,8.0,-999.0,52,-99.99,,,0.00,weatherlink.com 1.10,2013-02-04 20:01:00,
2013-02-04 15:16:00,37.8,22.0,30.13,SSW,199,5.0,-999.0,53,-99.99,,,0.00,weatherlink.com 1.10,2013-02-04 20:16:00,
2013-02-04 15:31:00,37.9,22.0,30.13,SSW,200,5.0,-999.0,53,-99.99,,,0.00,weatherlink.com 1.10,2013-02-04 20:31:00,
2013-02-04 15:46:00,37.5,22.0,30.12,WSW,241,5.0,-999.0,54,-99.99,,,0.00,weatherlink.com 1.10,2013-02-04 20:46:00,
2013-02-04 16:01:00,37.9,22.0,30.12,WSW,246,6.0,-999.0,54,-99.99,,,0.00,weatherlink.com 1.10,2013-02-04 21:01:00,
2013-02-04 16:16:00,38.2,23.0,30.12,SSW,204,4.0,-999.0,55,-99.99,,,0.00,weatherlink.com 1.10,2013-02-04 21:16:00,
2013-02-04 16:31:00,37.1,23.0,30.12,West,264,5.0,-999.0,57,-99.99,,,0.00,weatherlink.com 1.10,2013-02-04 21:31:00,
2013-02-04 16:46:00,36.9,23.0,30.11,WSW,237,11.0,-999.0,58,-99.99,,,0.00,weatherlink.com 1.10,2013-02-04 21:46:00,
2013-02-04 17:01:00,37.0,23.0,30.12,SSW,211,8.0,-999.0,58,-99.99,,,0.00,weatherlink.com 1.10,2013-02-04 22:01:00,
2013-02-04 17:16:00,36.5,23.0,30.11,SW,219,8.0,-999.0,59,-99.99,,,0.00,weatherlink.com 1.10,2013-02-04 22:16:00,
2013-02-04 17:31:00,36.2,23.0,30.11,WSW,257,9.0,-999.0,59,-99.99,,,0.00,weatherlink.com 1.10,2013-02-04 22:31:00,
2013-02-04 17:46:00,36.0,23.0,30.11,West,263,6.0,-999.0,59,-99.99,,,0.00,weatherlink.com 1.10,2013-02-04 22:46:00,
2013-02-04 18:01:00,35.9,23.0,30.10,SSE,167,9.0,-999.0,60,-99.99,,,0.00,weatherlink.com 1.10,2013-02-04 23:01:00,
2013-02-04 18:16:00,35.9,23.0,30.10,SSW,210,5.0,-999.0,60,-99.99,,,0.00,weatherlink.com 1.10,2013-02-04 23:16:00,
2013-02-04 18:31:00,35.7,23.0,30.10,SW,215,9.0,-999.0,60,-99.99,,,0.00,weatherlink.com 1.10,2013-02-04 23:31:00,
2013-02-04 18:46:00,35.3,23.0,30.10,SW,232,11.0,-999.0,62,-99.99,,,0.00,weatherlink.com 1.10,2013-02-04 23:46:00,
2013-02-04 19:01:00,35.0,23.0,30.10,WSW,255,8.0,-999.0,63,-99.99,,,0.00,weatherlink.com 1.10,2013-02-05 00:01:00,
2013-02-04 19:16:00,34.6,23.0,30.10,WSW,241,7.0,-999.0,63,-99.99,,,0.00,weatherlink.com 1.10,2013-02-05 00:16:00,
2013-02-04 19:31:00,34.3,23.0,30.10,SSW,204,9.0,-999.0,63,-99.99,,,0.00,weatherlink.com 1.10,2013-02-05 00:31:00,
2013-02-04 19:46:00,33.9,22.0,30.10,SW,234,8.0,-999.0,63,-99.99,,,0.00,weatherlink.com 1.10,2013-02-05 00:46:00,
2013-02-04 20:01:00,33.5,22.0,30.10,SSW,213,10.0,-999.0,64,-99.99,,,0.00,weatherlink.com 1.10,2013-02-05 01:01:00,
2013-02-04 20:16:00,33.2,22.0,30.10,SW,228,10.0,-999.0,64,-99.99,,,0.00,weatherlink.com 1.10,2013-02-05 01:16:00,
2013-02-04 20:31:00,33.0,22.0,30.10,SW,234,7.0,-999.0,64,-99.99,,,0.00,weatherlink.com 1.10,2013-02-05 01:31:00,
2013-02-04 20:46:00,33.0,22.0,30.09,WSW,248,7.0,-999.0,64,-99.99,,,0.00,weatherlink.com 1.10,2013-02-05 01:46:00,
2013-02-04 21:01:00,33.5,22.0,30.09,West,267,5.0,-999.0,64,-99.99,,,0.00,weatherlink.com 1.10,2013-02-05 02:01:00,
2013-02-04 21:16:00,35.6,23.0,30.09,SW,233,12.0,-999.0,60,-99.99,,,0.00,weatherlink.com 1.10,2013-02-05 02:16:00,
2013-02-04 21:31:00,36.9,22.0,30.09,WSW,258,11.0,-999.0,56,-99.99,,,0.00,weatherlink.com 1.10,2013-02-05 02:31:00,
2013-02-04 21:46:00,37.9,23.0,30.09,SW,227,13.0,-999.0,55,-99.99,,,0.00,weatherlink.com 1.10,2013-02-05 02:46:00,
2013-02-04 22:01:00,38.4,23.0,30.08,WSW,256,8.0,-999.0,54,-99.99,,,0.00,weatherlink.com 1.10,2013-02-05 03:01:00,
2013-02-04 22:16:00,38.4,23.0,30.08,WSW,248,11.0,-999.0,54,-99.99,,,0.00,weatherlink.com 1.10,2013-02-05 03:16:00,
2013-02-04 22:31:00,37.9,22.0,30.08,WSW,239,12.0,-999.0,54,-99.99,,,0.00,weatherlink.com 1.10,2013-02-05 03:31:00,
2013-02-04 22:46:00,37.4,22.0,30.07,West,262,9.0,-999.0,55,-99.99,,,0.00,weatherlink.com 1.10,2013-02-05 03:46:00,
2013-02-04 23:01:00,37.7,22.0,30.07,WSW,252,10.0,-999.0,54,-99.99,,,0.00,weatherlink.com 1.10,2013-02-05 04:01:00,
2013-02-04 23:16:00,38.0,22.0,30.07,WSW,242,14.0,-999.0,53,-99.99,,,0.00,weatherlink.com 1.10,2013-02-05 04:16:00,
2013-02-04 23:31:00,38.1,22.0,30.06,SW,232,10.0,-999.0,53,-99.99,,,0.00,weatherlink.com 1.10,2013-02-05 04:31:00,
2013-02-04 23:46:00,38.3,22.0,30.05,WSW,244,11.0,-999.0,52,-99.99,,,0.00,weatherlink.com 1.10,2013-02-05 04:46:00,